{"data":{"norad_id":58879,"intl_designator":"2024-020D","name":"STARLINK-31296","alt_names":[],"object_type":"PAYLOAD","status":"ACTIVE","operator":null,"country":"US","launch_date":"2024-01-29","launch_site_code":"AFWTR","launch_vehicle":null,"mission":null,"orbit_class":"UNKNOWN","rcs_meters":null,"size_class":null,"mass_kg":null,"dimensions":null,"purposes":["comms"],"wikipedia_slug":null,"has_3d_model":false,"image_url":null,"decayed_at":null,"tle_current":{"epoch":"2026-05-24T15:35:02.295168Z","epoch_age_seconds":105380,"freshness":"FRESH","line1":"1 58879U 24020D   26144.64933212  .00000439  00000+0  26957-4 0  9990","line2":"2 58879  53.1606 303.8219 0001083  77.2617 282.8505 15.30191851130062","mean_motion":15.30191851,"eccentricity":0.0001083,"inclination_deg":53.1606,"raan_deg":303.8219,"arg_perigee_deg":77.2617,"mean_anomaly_deg":282.8505,"bstar":2.6957e-5,"rev_number":13006,"period_min":94.105846862205,"perigee_km":474.49718030821,"apogee_km":475.98162163666,"semimajor_km":6853.3764009724,"source":"CELESTRAK","updated_at":"2026-05-25T13:38:18.783265Z"}}}